NKS3521 KFLL-MDST

Flight info

Callsign NKS3521
Flight time N/A
Altitude 35000
Route SNAPR2 SUMAC Y443 RUMFO Y441 JUELE JUELE2P
Aircraft A321/M-SDE3FGHIRWY/LB1

Departure

Time 2026-05-06 19:48
Airport Fort Lauderdale Hollywood International Airport (KFLL)

Arrival

Time N/A
Airport Cibao International Airport (MDST)
Time Latitude Longitude Altitude Speed Heading
2026-05-06 19:22 26.06877 -80.14297 16 ft 0 kts 360°
2026-05-06 19:38 26.06875 -80.14297 16 ft 2 kts
2026-05-06 19:38 26.06849 -80.14298 19 ft 4 kts 355°
2026-05-06 19:38 26.06827 -80.14290 17 ft 4 kts 308°
2026-05-06 19:38 26.06818 -80.14266 17 ft 2 kts 269°
2026-05-06 19:39 26.06818 -80.14264 17 ft 0 kts 268°
2026-05-06 19:42 26.06818 -80.14267 17 ft 2 kts 269°
2026-05-06 19:42 26.06817 -80.14308 16 ft 8 kts 269°
2026-05-06 19:42 26.06817 -80.14390 16 ft 12 kts 270°
2026-05-06 19:42 26.06818 -80.14487 16 ft 13 kts 271°
2026-05-06 19:43 26.06813 -80.14563 16 ft 9 kts 246°
2026-05-06 19:43 26.06771 -80.14605 15 ft 8 kts 237°
2026-05-06 19:43 26.06765 -80.14669 15 ft 10 kts 269°
2026-05-06 19:43 26.06766 -80.14763 15 ft 15 kts 270°
2026-05-06 19:44 26.06767 -80.14883 15 ft 16 kts 270°
2026-05-06 19:44 26.06768 -80.15008 16 ft 17 kts 270°
2026-05-06 19:44 26.06768 -80.15140 16 ft 17 kts 270°
2026-05-06 19:44 26.06769 -80.15275 16 ft 18 kts 270°
2026-05-06 19:45 26.06770 -80.15418 16 ft 18 kts 270°
2026-05-06 19:45 26.06760 -80.15515 16 ft 10 kts 235°
2026-05-06 19:45 26.06705 -80.15547 16 ft 8 kts 227°
2026-05-06 19:45 26.06697 -80.15610 16 ft 9 kts 271°
2026-05-06 19:46 26.06698 -80.15685 16 ft 10 kts 271°
2026-05-06 19:46 26.06699 -80.15770 16 ft 11 kts 269°
2026-05-06 19:46 26.06665 -80.15821 16 ft 8 kts 196°
2026-05-06 19:46 26.06609 -80.15819 18 ft 7 kts 176°
2026-05-06 19:47 26.06590 -80.15800 18 ft 1 kts 92°
2026-05-06 19:47 26.06590 -80.15794 18 ft 0 kts 90°
2026-05-06 19:47 26.06589 -80.15647 22 ft 53 kts 91°
2026-05-06 19:47 26.06584 -80.14984 19 ft 118 kts 90°
2026-05-06 19:48 26.06577 -80.13912 254 ft 144 kts 91°
2026-05-06 19:48 26.06590 -80.12811 938 ft 144 kts 90°
2026-05-06 19:48 26.06611 -80.11641 1554 ft 159 kts 89°
2026-05-06 19:48 26.06633 -80.10336 1871 ft 179 kts 89°
2026-05-06 19:49 26.06653 -80.08862 2087 ft 202 kts 90°
2026-05-06 19:49 26.06671 -80.07224 2257 ft 223 kts 89°
2026-05-06 19:49 26.06688 -80.05413 2482 ft 242 kts 90°
2026-05-06 19:49 26.06704 -80.03477 2849 ft 259 kts 90°
2026-05-06 19:50 26.06719 -80.01442 3484 ft 266 kts 90°
2026-05-06 19:50 26.06726 -79.99373 4192 ft 270 kts 91°
2026-05-06 19:50 26.06712 -79.97263 4908 ft 275 kts 91°
2026-05-06 19:50 26.06690 -79.95121 5623 ft 278 kts 91°
2026-05-06 19:51 26.06666 -79.92968 6361 ft 280 kts 91°
2026-05-06 19:51 26.06642 -79.90786 7049 ft 283 kts 90°
2026-05-06 19:51 26.06619 -79.88597 7709 ft 285 kts 89°
2026-05-06 19:51 26.06594 -79.86377 8363 ft 288 kts 89°
2026-05-06 19:52 26.06568 -79.84134 9017 ft 291 kts 89°
2026-05-06 19:52 26.06377 -79.81882 9648 ft 296 kts 98°
2026-05-06 19:52 26.06026 -79.79613 10242 ft 299 kts 97°
2026-05-06 19:52 26.05664 -79.77277 10455 ft 318 kts 97°
2026-05-06 19:53 26.05403 -79.75595 10543 ft 332 kts 97°
2026-05-06 19:53 26.04999 -79.73006 10758 ft 347 kts 97°
2026-05-06 19:53 26.04587 -79.70370 11235 ft 352 kts 97°
2026-05-06 19:53 26.04167 -79.67681 11794 ft 355 kts 97°
2026-05-06 19:54 26.03740 -79.64975 12358 ft 357 kts 97°
2026-05-06 19:54 26.03224 -79.62262 12912 ft 361 kts 100°
2026-05-06 19:54 26.02609 -79.59544 13466 ft 364 kts 101°
2026-05-06 19:54 26.01940 -79.56814 14001 ft 366 kts 102°
2026-05-06 19:55 26.01252 -79.54071 14454 ft 370 kts 102°
2026-05-06 19:55 26.00562 -79.51299 14893 ft 374 kts 102°
2026-05-06 19:55 25.99880 -79.48493 15327 ft 378 kts 101°
2026-05-06 19:55 25.99206 -79.45657 15776 ft 382 kts 101°
2026-05-06 19:56 25.98533 -79.42797 16196 ft 386 kts 101°
2026-05-06 19:56 25.97854 -79.39897 16631 ft 389 kts 101°
2026-05-06 19:56 25.97028 -79.36997 17054 ft 396 kts 107°
2026-05-06 19:56 25.96034 -79.34129 17477 ft 400 kts 107°
2026-05-06 19:57 25.95025 -79.31234 17903 ft 404 kts 108°
2026-05-06 19:57 25.94004 -79.28312 18333 ft 408 kts 108°
2026-05-06 19:57 25.92972 -79.25363 18707 ft 411 kts 108°
2026-05-06 19:57 25.91931 -79.22384 19107 ft 414 kts 108°
2026-05-06 19:58 25.90886 -79.19387 19503 ft 417 kts 108°
2026-05-06 19:58 25.89838 -79.16376 19898 ft 420 kts 108°
2026-05-06 19:58 25.88781 -79.13343 20299 ft 423 kts 108°
2026-05-06 19:58 25.87714 -79.10285 20699 ft 426 kts 108°
2026-05-06 19:59 25.86638 -79.07205 21095 ft 429 kts 108°
2026-05-06 19:59 25.85555 -79.04110 21496 ft 432 kts 108°